Probability
0 0 0 0 0 0 0 0 0 0 0 0 0 0 0 0 0 0 0 0 0 0 0 0 0 0 0 0 0 0 0 0 0 0 0 0 0 0 0 0 0 0 0
0 0 0 0 0 0 0 0 0 0 0 0 0 0 0 0 0 0 0 0 0 0 0 0 0 0 0 0 0 0 0 0 0 0 0 0 0 0 0 0 0 0 0
0 0 0 0 0 0 0 0 0 0 0 0 0 0 0 0 0 0 0 0 0 0 0 0 0 0 0 0 0 0 0 0 0 0 0 0 0 0 0 0 0 0 0
0 0 0 0 0 0 0 0 0 0 0 0 0 0 0 0 0 0 0 0 0 0 0 0 0 0 0 0 0 0 0 0 0 0 0 0 0 0 0 0 0 0 0
0 0 0 0 0 0 0 0 0 0 0 0 0 0 0 0 0 0 0 0 0 0 0 0 0 0 0 0 0 0 0 0 0 0 0 0 0 0 0 0 0 0 0
0 0 0 0 0 0 0 0 0 0 0 0 0 0 0 0 0 0 0 0 0 0 0 0 0 0 0 0 0 0 0 0 0 0 0 0 0 0 0 0 0 0 0
0 0 0 0 0 0 0 0 0 0 0 0 0 0 0 0 0 0 0 0 0 0 0 0 0 0 0 0 0 0 0 0 0 0 0 0 0 0 0 0 0 0 0
0 0 0 0 0 0 0 0 0 0 0 0 0 0 0 0 0 0 0 0 0 0 0 0 0 0 0 0 0 0 0 0 0 0 0 0 0 0 0 0 0 0 0
0 0 0 0 0 0 0 0 0 0 0 0 0 0 0 0 0 0 0 0 0 0 0 0 0 0 0 0 0 0 0 0 0 0 0 0 0 0 0 0 0 0 0
0 0 0 0 0 0 0 0 0 0 0 0 0 0 0 0 0 0 0 0 0 0 0 0 0 0 0 0 0 0 0 0 0 0 0 0 0 0 0 0 0 0 0
0 0 0 0 0 0 0 0 0 0 0 0 0 0 0 0 0 0 0 0 0 0 0 0 0 0 0 0 0 0 0 0 0 0 0 0 0 0 0 0 0 0 0
0 0 0 0 0 0 0 0 0 0 0 0 0 0 0 0 0 0 0 0 0 0 0 0 0 0 0 0 0 0 0 0 0 0 0 0 0 0 0 0 0 0 0
1 0 0 0 0 0 0 0 0 0 0 0 0 0 0 0 0 0 0 0 0 0 0 0 0 0 0 0 0 0 0 0 0 0 0 0 0 0 0 0 0 0 0
2 1 0 0 0 0 0 0 0 0 0 0 0 0 0 0 0 0 0 0 0 0 0 0 0 0 0 0 0 0 0 0 0 0 0 0 0 0 0 0 0 0 0
2 1 0 0 0 0 0 0 0 0 0 0 0 0 0 0 0 0 0 0 0 0 0 0 0 0 0 0 0 0 0 0 0 0 0 0 0 0 0 0 0 0 0
3 2 1 0 0 0 0 0 0 0 0 0 0 0 0 0 0 0 0 0 0 0 0 0 0 0 0 0 0 0 0 0 0 0 0 0 0 0 0 0 0 0 0
3 3 2 1 0 0 0 0 0 0 0 0 0 0 0 0 0 0 0 0 0 0 0 0 0 0 0 0 0 0 0 0 0 0 0 0 0 0 0 0 0 0 0
2 3 3 2 1 0 0 0 0 0 0 0 0 0 0 0 0 0 0 0 0 0 0 0 0 0 0 0 0 0 0 0 0 0 0 0 0 0 0 0 0 0 0
1 1 2 3 2 1 0 0 0 0 0 0 0 0 0 0 0 0 0 0 0 0 0 0 0 0 0 0 0 0 0 0 0 0 0 0 0 0 0 0 0 0 0
0 0 1 2 2 1 1 0 0 0 0 0 0 0 0 0 0 0 0 0 0 0 0 0 0 0 0 0 0 0 0 0 0 0 0 0 0 0 0 0 0 0 0
0 0 0 1 1 1 1 0 0 0 0 0 0 0 0 0 0 0 0 0 0 0 0 0 0 0 0 0 0 0 0 0 0 0 0 0 0 0 0 0 0 0 0
1 0 0 0 0 1 1 0 0 0 0 0 0 0 0 0 0 0 0 0 0 0 0 0 0 0 0 0 0 0 0 0 0 0 0 0 0 0 0 0 0 0 0
2 1 0 0 0 0 0 0 0 0 0 0 0 0 0 0 0 0 0 0 0 0 0 0 0 0 0 0 0 0 0 0 0 0 0 0 0 0 0 0 0 0 0
2 1 0 0 0 0 0 0 0 0 0 0 0 0 0 0 0 0 0 0 0 0 0 0 0 0 0 0 0 0 0 0 0 0 0 0 0 0 0 0 0 0 0
2 1 0 0 0 0 0 0 0 0 0 0 0 0 0 0 0 0 0 0 0 0 0 0 0 0 0 0 0 0 0 0 0 0 0 0 0 0 0 0 0 0 0
2 1 0 0 0 0 0 0 0 0 0 0 0 0 0 0 0 0 0 0 0 0 0 0 0 0 0 0 0 0 0 0 0 0 0 0 0 0 0 0 0 0 0
Wind_Speed
6 5 4 4 4 4 5 5 4 5 4 4 3 4 3 3 2 2 2 4 5 5 6 6 6 6 6 7 6 6 6 6 7 7 8 8 9 9 9 10 11 11 12
7 6 6 5 4 4 4 4 5 4 3 3 3 3 3 2 2 2 2 3 4 4 4 4 5 5 5 5 5 5 5 5 6 6 7 7 8 8 9 9 10 11 11
9 7 6 5 4 5 5 5 4 4 4 3 3 2 2 2 2 1 1 2 2 4 3 3 3 3 3 3 3 4 4 4 5 5 6 6 7 7 8 9 9 10 11
10 8 7 5 5 5 5 5 4 3 3 3 2 1 1 1 1 1 1 1 1 2 3 3 2 2 1 2 2 2 2 3 4 4 5 6 7 7 8 8 9 10 11
10 8 7 6 7 5 4 5 3 3 3 3 2 2 1 1 1 1 1 0 0 0 1 2 3 3 3 2 2 2 2 3 4 4 5 6 7 7 8 9 9 10 11
11 9 7 7 7 6 5 4 4 3 3 3 3 2 1 1 0 1 1 1 1 1 0 1 1 2 3 3 4 4 4 4 5 5 6 6 7 8 9 9 10 11 12
11 10 8 8 7 6 7 7 4 4 3 3 3 2 2 1 0 1 1 1 2 1 1 1 1 1 2 4 5 5 5 6 6 6 7 8 8 9 10 10 11 12 13
12 10 10 9 8 7 7 7 6 4 2 3 4 3 1 3 2 1 1 2 2 1 2 2 2 2 1 1 4 6 7 7 8 8 8 9 10 10 11 11 12 13 13
13 11 11 10 9 9 8 8 7 7 5 2 2 4 4 3 2 2 2 2 2 2 2 2 3 3 3 2 2 5 7 9 9 10 10 10 11 11 12 12 13 13 14
13 12 12 11 11 9 9 9 7 5 7 4 2 1 2 3 3 1 2 2 2 3 3 2 3 3 3 2 4 7 8 9 10 10 10 11 11 12 12 13 13 14 15
12 13 12 12 11 9 10 10 8 7 6 6 4 3 2 2 2 2 2 2 2 2 3 3 3 3 3 3 3 5 8 9 10 10 11 11 11 12 13 13 14 14 15
10 13 13 12 11 10 10 10 10 10 7 6 5 4 4 4 3 3 3 3 2 2 2 2 2 3 3 3 4 7 8 9 9 10 10 10 11 11 12 13 14 15 16
10 14 13 12 11 10 11 10 10 10 9 8 7 5 4 4 4 4 3 2 2 2 2 1 2 2 2 2 3 5 7 8 8 9 9 9 10 11 12 13 14 15 16
12 13 13 12 12 12 11 11 9 9 8 9 9 7 5 4 4 4 4 3 1 2 2 3 1 1 2 1 2 3 4 7 7 8 8 9 10 11 12 13 14 15 16
10 13 14 13 12 12 12 11 9 9 9 9 8 8 6 5 4 4 3 4 4 2 3 3 1 1 1 1 2 1 2 5 7 8 8 9 9 10 11 12 13 14 15
12 14 14 13 13 12 12 12 9 9 10 9 7 8 7 5 4 4 4 3 3 4 4 2 2 1 0 1 2 1 2 6 7 8 9 9 9 9 11 12 13 14 15
13 15 15 14 14 13 13 12 11 11 11 9 8 9 8 6 5 4 4 3 3 3 4 3 1 0 0 1 2 2 2 2 4 8 9 9 9 10 10 11 12 14 15
14 14 14 14 14 13 13 13 12 12 12 11 10 9 9 6 6 5 4 4 4 4 4 4 2 1 1 1 1 2 2 2 3 7 8 9 9 10 10 11 12 13 14
13 13 14 15 14 14 13 13 12 12 11 11 11 10 9 8 7 5 5 5 4 3 3 3 2 1 0 0 1 2 2 2 3 5 7 8 9 10 10 11 12 13 14
13 14 14 14 13 13 13 12 12 11 10 9 9 9 9 9 9 8 6 5 4 3 2 2 2 1 0 0 0 2 3 2 3 3 5 6 8 10 10 11 12 13 13
13 13 12 12 12 11 11 12 11 11 10 9 8 7 7 8 9 8 6 5 5 4 3 2 1 1 1 0 1 1 2 3 3 1 3 3 4 3 5 8 10 12 13
12 12 13 12 12 10 14 17 13 10 10 9 8 7 6 7 8 9 9 9 8 5 4 3 2 2 2 1 1 1 1 2 3 2 2 4 2 3 3 3 10 13 13
11 12 12 12 11 12 17 18 16 10 9 9 9 8 6 6 7 6 7 8 6 6 6 5 3 3 2 2 1 1 1 1 2 2 2 3 2 3 4 5 11 12 13
11 10 11 11 10 11 17 18 16 10 8 8 8 8 8 7 7 9 7 6 4 3 3 3 3 2 1 1 1 1 1 1 1 1 1 2 3 4 5 4 9 12 14
10 9 10 11 11 11 16 18 16 9 7 7 6 7 8 8 12 14 9 8 6 4 6 8 7 6 6 5 4 2 2 2 2 2 2 2 3 4 4 3 5 12 14
10 9 9 9 10 11 16 18 17 9 9 7 6 7 10 11 14 14 9 8 7 4 5 5 6 7 5 5 6 3 1 1 1 2 2 2 2 4 5 3 3 5 7
Wind_Direction
144 138 133 128 125 121 120 116 111 108 105 106 108 112 107 97 81 54 24 53 76 90 97 93 91 88 82 78 71 64 58 53 48 45 38 34 30 26 21 15 14 13 10
149 146 142 138 137 135 129 124 124 117 110 113 113 115 115 107 89 69 43 33 49 69 89 90 85 79 80 76 69 59 51 43 41 38 31 25 20 16 13 9 8 5 3
153 151 150 150 148 137 126 117 110 105 108 107 108 114 115 112 108 88 61 40 28 34 54 76 76 70 66 61 61 53 41 32 26 21 16 11 6 4 2 359 359 358 355
156 153 156 157 149 139 134 129 124 111 111 114 114 109 105 110 119 119 87 59 38 22 19 27 24 15 19 16 26 26 17 7 360 357 356 354 353 353 350 350 350 348 346
162 159 160 156 150 143 140 141 127 126 129 125 117 94 77 97 137 144 158 160 83 32 2 357 1 347 333 328 326 326 329 331 331 335 337 339 340 339 339 339 339 338 337
166 161 160 158 154 149 147 144 132 115 123 128 105 75 39 19 41 212 227 229 239 240 248 327 351 338 327 310 307 302 304 310 316 321 325 327 328 329 328 327 328 328 328
169 167 165 162 163 163 161 149 132 125 118 126 98 56 5 354 267 248 241 235 245 245 235 237 244 278 311 305 302 295 296 302 307 309 312 315 316 316 318 320 322 323 324
173 174 169 171 170 162 158 159 143 134 133 150 128 112 17 331 306 255 243 231 241 246 240 232 224 230 246 275 294 295 293 297 300 302 304 307 309 311 314 315 317 319 320
179 177 176 172 173 171 173 172 162 152 151 170 154 145 153 215 279 305 260 242 239 235 241 238 233 233 233 241 270 289 289 288 292 297 300 302 304 307 310 313 316 318 321
181 180 177 176 176 177 175 177 172 160 150 162 162 122 141 151 153 292 307 274 248 238 237 236 237 239 235 238 255 268 279 281 285 292 298 302 305 307 311 315 318 320 321
183 182 180 180 180 180 178 176 172 171 165 163 163 152 131 103 131 153 263 295 295 252 234 233 236 242 239 237 246 265 275 279 284 291 297 301 305 308 312 315 317 318 318
185 185 183 184 183 182 181 180 179 180 180 171 170 163 161 162 179 172 205 244 264 276 260 243 236 242 239 238 253 270 275 279 284 290 295 301 305 309 311 313 315 316 316
188 189 185 186 185 184 181 178 179 185 184 182 184 186 184 182 162 163 173 210 243 280 296 275 240 242 245 239 258 278 279 284 290 294 298 302 305 306 309 312 314 315 315
190 183 184 186 185 182 181 181 183 187 187 191 193 189 189 194 176 172 169 164 211 286 282 266 273 242 251 243 269 280 283 289 296 297 298 301 303 304 307 310 311 312 314
180 179 183 184 184 182 182 180 187 188 187 195 196 194 195 196 190 187 173 168 174 228 265 254 258 292 267 250 296 285 276 295 299 298 299 302 305 307 309 311 313 314 315
179 178 183 184 183 183 183 183 185 186 188 194 191 193 200 195 189 184 183 182 182 191 238 241 221 242 326 348 323 304 282 306 305 303 303 305 308 311 312 313 314 314 315
180 182 183 184 184 185 185 187 188 184 191 193 190 193 201 193 188 189 181 179 188 183 226 254 214 211 121 332 335 324 302 300 306 307 309 311 315 316 314 315 317 318 319
183 183 181 183 185 186 186 188 189 188 191 193 192 191 198 190 191 187 184 191 195 193 204 239 247 235 241 299 318 320 324 328 305 311 316 318 319 320 321 321 323 322 322
182 180 181 185 186 186 187 189 189 190 192 193 190 192 194 186 194 189 186 192 193 188 193 210 240 218 226 342 331 318 323 317 318 318 320 320 321 328 329 327 325 324 326
182 182 184 186 185 184 185 186 186 186 187 188 187 189 190 190 193 188 188 189 178 173 176 191 221 222 233 335 342 310 318 324 319 327 327 324 326 331 330 328 328 328 330
183 181 179 180 181 181 184 182 182 181 180 178 180 184 185 184 184 180 176 174 167 169 168 179 199 201 232 301 291 289 297 317 307 323 325 317 319 319 326 327 327 329 333
178 177 179 178 180 184 178 176 175 177 175 174 174 172 167 169 166 161 158 157 159 165 175 172 182 200 235 238 245 277 292 335 308 335 332 309 322 310 311 305 323 332 336
173 176 177 176 179 178 171 171 170 169 169 170 168 164 156 156 151 144 138 131 131 134 148 160 167 195 205 208 188 237 259 264 269 309 333 298 320 307 310 317 326 332 336
170 170 171 172 171 171 166 163 158 157 155 159 162 161 156 152 148 138 129 118 105 98 117 123 141 147 136 133 138 157 240 291 296 319 8 299 310 305 313 312 322 335 339
165 163 162 164 165 162 160 156 151 152 146 147 146 148 149 146 144 137 132 126 113 94 87 97 96 90 84 80 88 80 48 25 331 322 9 325 310 311 304 299 316 331 336
158 154 152 156 159 160 158 154 151 151 147 143 137 140 143 144 146 142 141 140 137 133 114 95 80 67 60 59 63 71 96 66 345 308 342 341 322 334 319 302 304 314 322